Location: Bühlhof
(48.7849°N, 8.6361°E)
Time: 00:02:41
(UTC+00:00)

NOSS 3-4 (A) - Pass Details

Date: 19 January 2026
Orbit: 769 x 1442 km, 63.4° (Epoch: 10 January)

Event Time Altitude Azimuth Distance (km) Brightness Sun altitude
Rises 17:49:19 0° 246° (WSW) 3,254 7.8 -17.2°
Reaches altitude 10° 17:51:45 10° 254° (WSW) 2,361 6.8 -17.6°
Maximum altitude 17:56:51 42° 325° (NW) 1,190 4.1 -18.4°
Enters shadow 18:01:08 17° 30° (NNE) 2,151 4.9 -19.1°
